Regional Weather Roundup
Issued by NWS Upton, NY

Current Version | Previous Version | Graphics & Text | Print | Product List | Glossary Off
Versions: 1 2 3 4 5 6 7 8 9 10 11 12 13 14 15 16 17 18 19 20 21 22 23 24 25 26 27

000
ASUS41 KOKX 251705
RWROKX

Regional Weather Roundup
National Weather Service New York NY
1200 PM EST SUN FEB 25 2018

Note: "FAIR" indicates few or no clouds below 12,000 feet with no
significant weather and/or obstructions to visibility.

NYZ071-072-176-178-NJZ106-104-251800-
New York City Metro Area

CITY           SKY/WX    TMP DP  RH WIND       PRES   REMARKS
Central Park   LGT RAIN  41  39  93 NE10      30.02F
Bronx Bot Gard   N/A     39  37  93 E5        30.01F
Bronx Lehman C   N/A     41  39  93 E12         N/A
LaGuardia Arpt LGT RAIN  41  38  89 NE17      30.00F FOG
Queens College   N/A     39  37  93 NE10        N/A  WCI  32
Kennedy Intl   LGT RAIN  44  43  96 NE12      30.00F FOG
Breezy Point     N/A     43 N/A N/A NE10        N/A
Brooklyn Coll    N/A     41  39  93 N10         N/A
Staten Island    N/A     41  41 100 NE7         N/A
Newark/Liberty LGT RAIN  41  40  96 NE15      29.97F
Teterboro      LGT RAIN  42  39  89 NE16      29.98F FOG
$$

NYZ177-179-078>081-251800-
Long Island New York

CITY           SKY/WX    TMP DP  RH WIND       PRES   REMARKS
Jones Beach      N/A     41 N/A N/A E21G26      N/A
Wantagh          N/A     43  41  93 NE12G23     N/A
Hempstead        N/A     43  43 100 N3        30.02S
Matinecock Pt    N/A     37 N/A N/A NE25        N/A  WCI  26
Farmingdale    LGT RAIN  44  42  93 NE8       29.99R
MacArthur/ISP  LGT RAIN  43  42  97 E15G24    29.97F
Stony Brook U    N/A     43  41  93 E8          N/A
Shirley        LGT RAIN  43  43 100 E9G18     29.97F
Mt Sinai Harb    N/A    N/A N/A N/A NE6         N/A
Westhampton    LGT RAIN  42  41  96 E15G29    29.97F FOG
East Hampton   LGT RAIN  40  39  95 E20G28    30.00F WCI  31
Southold         N/A     41  39  93 E16         N/A
Montauk          N/A     41  40  96 E13G28    30.02F
$$

NYZ052-065-067-251800-
Hudson Valley

CITY           SKY/WX    TMP DP  RH WIND       PRES   REMARKS
White Plains   LGT RAIN  40  38  93 E13G23    29.98F FOG     WCI  32
Larchmont Harb   N/A     37 N/A N/A NE24        N/A  WCI  26
Croton On Huds   N/A     41 N/A N/A E3G12       N/A
Somers           N/A     39  39 100 E14         N/A  WCI  31
Brewster         N/A     41  39  93 SE3         N/A
Newburgh       LGT RAIN  41  41 100 MISG      29.98F
Montgomery     LGT RAIN  41  39  93 SE6       29.92F
Otisville        N/A     39  39 100 NW6         N/A  WCI  35
Warwick          N/A     41  39  93 E12         N/A
Suffern          N/A     39  39 100 E3          N/A
Poughkeepsie   CLOUDY    42  39  89 CALM      29.97F FOG
Albany         CLOUDY    40  34  79 S14G22    29.99F WCI  32
$$

NJZ001-105-106-008-010-013-015-019>022-104-251800-
New Jersey

CITY           SKY/WX    TMP DP  RH WIND       PRES   REMARKS
Newark/Liberty LGT RAIN  41  40  96 NE15      29.97F
Teterboro      LGT RAIN  42  39  89 NE16      29.98F FOG
Caldwell       LGT RAIN  41  41 100 E9        29.98F
Somerville     LGT RAIN  43  42  97 E6        29.93F
Linden         DRIZZLE   42  40  91 E7        29.98F
Perth Amboy      N/A     43 N/A N/A E9          N/A
Sussex         CLOUDY    43  40  89 VRB6      29.94F
Andover          N/A     42  39  89 VRB6      29.94F
Trenton        LGT RAIN  44  42  93 E12       29.94F
Millville      CLOUDY    49  48  97 CALM      29.94F
Atlantic City  CLOUDY    51  51 100 W7        29.94F
Wrightstown    LGT RAIN  45  43  93 NE8       29.92
Toms River     CLOUDY    45  45 100 N8        29.94F
Belmar         LGT RAIN  42  42 100 N13       29.96F FOG
$$

PAZ047>061-062-071-251800-
Eastern Pennsylvania

CITY           SKY/WX    TMP DP  RH WIND       PRES   REMARKS
Philadelphia   LGT RAIN  46  44  93 NE8       29.98F
Allentown      LGT RAIN  46  41  82 E13       29.93F
Scranton       CLOUDY    46  41  82 S6        29.95R
$$

CTZ002-004>006-009-010-012-RIZ004-006-007-MAZ004-011-015-251800-
Southern New England

 In CT

CITY           SKY/WX    TMP DP  RH WIND       PRES   REMARKS
Bradley Intl   LGT RAIN  39  38  96 NE6       30.07F FOG     WCI  35
Hartford       LGT RAIN  41  39  93 N7        30.08F FOG
Danbury        LGT RAIN  42  40  92 E9G20     30.00F
Wtrbury/Oxford LGT RAIN  39  39 100 E8        30.02F WCI  33
Norwalk Harbor   N/A     37 N/A N/A NE21G26     N/A  WCI  27
Bridgeport     RAIN      40  38  93 NE17      30.04F FOG     WCI  31
Meriden        RAIN      41  38  89 NW9       30.06F FOG
New Haven      LGT RAIN  43  39  86 E13G24    30.01F FOG
Chester        LGT RAIN  41  39  93 E9G17     30.01F
Groton         LGT RAIN  42  38  85 E23G33    30.01F FOG
Willimantic    LGT RAIN  41  38  89 E6        30.07F FOG

 In RI

CITY           SKY/WX    TMP DP  RH WIND       PRES   REMARKS
Providence     LGT RAIN  41  40  96 E15G24    30.10F FOG
Block Island   RAIN      39  39 100 E16G25    30.05F FOG     WCI  30
Westerly       LGT RAIN  41  40  96 E23G30    30.05F FOG

In MA

CITY           SKY/WX    TMP DP  RH WIND       PRES   REMARKS
Boston         LGT RAIN  39  38  96 E22G30    30.14F FOG     WCI  29
Worcester      RAIN      34  33  96 E10       30.07F VSB 1/2 WCI  26
Westfield      LGT RAIN  37  36  96 NE8       30.06F WCI  31
Provincetown   LGT RAIN  39  37  93 E13G24    30.15F FOG     WCI  32
Nantucket      RAIN      41  41 100 E26G33    30.09F FOG
$$

ANZ330-335-338-340-345-350-353-355-251800-
Coastal Marine Observations


STATION/POSITION TIME  SKY/WX   TEMP    WIND        PRES    VSBY  WAVE
                                AIR SEA DIR/SP/G                  HT/PER
                 (UTC)          (F)     (DEG/KT/KT) (MB)    (MI)  (FT/S)
NY Harb Entrance 1650            41 39   60/ 16/ 19 1014.5          7/ 6
20 S Fire Island 1650            45 43  110/ 10/ 14 1013.5          7/ 7
23 SSW Montauk P 1650            43 43   70/ 17/ 21 1015.5          7/ 7
15 E Barnegat Li 1630               42                N/A           6/ 6
Hudson Canyon    1650            51 46  170/ 10/ 12 1013.4          6/ 6
Kings Point      1624            38 38   60/ 13/ 18 1018.0
Execution Rocks  NOT AVBL
Western LI Sound NOT AVBL
Central LI Sound 1600            39      90/ 21/ 25   N/A           3
Robbins Reef     1624            43     360/ 10/ 13 1017.1
$$


>>>>>>>>>>>>>>>>>>>>>>>>>>>> KEY <<<<<<<<<<<<<<<<<<<<<<<<<<<
>                                                          <
>     SKY/WX - Sky Condition/Present Weather               <
>     TMP    - Temperature in Fahrenheit                   <
>     DP     - Dew Point in Fahrenheit                     <
>     RH     - Relative Humidity in Percent                <
>     WIND   - Direction (from) and Speed in MPH           <
>     PRES   - Mean Sea Level Pressure (inches of Hg)      <
>     WCI    - Wind Chill Index                            <
>     VSB    - Visibility in Miles                         <
>     HX     - Heat Index                                  <
>     TC     - Temperature in Celsius                      <
>     VRB    - Varibale Wind Direction                     <
>                                                          <
>>>>>>>>>>>>>>>>>>>>>>>>>>>> KEY <<<<<<<<<<<<<<<<<<<<<<<<<<<




USA.gov is the U.S. government's official web portal to all federal, state and local government web resources and services.